GW2240 Weather Reports


Display with metric or nautical units.
time (UTC)temp
F
wind
direction
speed
MPH
gust
MPH
rain 1hr
in
rain 24hr
in
rain mn
in
humidity
%
barometer
mb
20260902130013 78 238 0.0 0.0 0.00 0.27 0.01 96 1014.4
20260902124525 78 214 0.0 0.0 0.00 0.27 0.01 96 1014.1
20260902123010 78 222 0.0 0.0 0.00 0.27 0.01 96 1013.8
20260902121509 78 212 0.0 0.0 0.00 0.27 0.01 96 1013.4
20260902120010 78 214 0.0 0.0 0.00 0.27 0.01 96 1013.2
20260902114520 78 206 0.0 0.0 0.00 0.27 0.01 96 1013.1
20260902113007 78 235 0.0 0.0 0.00 0.27 0.01 96 1013.0
20260902111505 78 228 0.0 1.0 0.00 0.27 0.01 96 1012.9
20260902110007 78 233 0.0 0.0 0.00 0.27 0.01 96 1012.9
20260902104505 77 235 0.0 0.0 0.00 0.27 0.01 96 1012.9
20260902103002 77 245 0.0 0.0 0.00 0.27 0.01 96 1012.9
20260902101502 77 9 0.0 0.0 0.00 0.27 0.01 96 1013.0
20260902100101 76 9 0.0 0.0 0.00 0.27 0.01 96 1012.9
20260902094601 76 9 0.0 0.0 0.01 0.27 0.01 96 1013.0
20260902093111 76 9 0.0 0.0 0.01 0.27 0.01 96 1013.1
20260902091559 76 9 0.0 0.0 0.01 0.27 0.01 96 1013.1
20260902084559 76 9 0.0 0.0 0.00 0.26 0.00 95 1013.0
20260902083057 76 9 0.0 0.0 0.00 0.26 0.00 95 1013.0
20260902081557 76 9 0.0 0.0 0.00 0.26 0.00 95 1013.0
20260902080059 76 9 0.0 0.0 0.00 0.26 0.00 95 1013.0
20260902074610 76 9 0.0 0.0 0.00 0.26 0.00 95 1012.9
20260902073054 76 9 0.0 0.0 0.00 0.26 0.00 95 1013.1
20260902071556 76 9 0.0 0.0 0.00 0.26 0.00 95 1013.2
20260902070053 76 9 0.0 0.0 0.00 0.26 0.00 95 1013.4
20260902064552 76 9 0.0 0.0 0.00 0.26 0.00 96 1013.3
20260902063050 76 9 0.0 0.0 0.00 0.26 0.00 96 1013.3
20260902061553 76 9 0.0 0.0 0.00 0.26 0.00 96 1013.4
20260902060057 76 9 0.0 0.0 0.00 0.26 0.00 96 1013.2
20260902054548 76 9 0.0 0.0 0.00 0.26 0.00 95 1013.2
20260902053059 76 9 0.0 0.0 0.00 0.26 0.00 95 1013.1
20260902051552 77 9 0.0 0.0 0.00 0.26 0.00 95 1013.0
20260902050046 77 9 0.0 0.0 0.00 0.26 0.00 95 1013.3
20260902044545 77 9 0.0 0.0 0.00 0.26 0.26 95 1013.3
20260902043042 77 9 0.0 0.0 0.00 0.26 0.26 95 1013.3
20260902041542 77 9 0.0 0.0 0.00 0.26 0.26 96 1013.3
20260902040041 77 9 0.0 0.0 0.00 0.26 0.26 96 1013.3
20260902034555 77 9 0.0 0.0 0.00 0.26 0.26 95 1013.4
20260902033040 77 9 0.0 0.0 0.00 0.26 0.26 95 1013.2
20260902031538 77 9 0.0 0.0 0.00 0.26 0.26 95 1013.4
20260902030038 77 9 0.0 0.0 0.00 0.26 0.26 95 1013.4
20260902024538 77 9 0.0 0.0 0.00 0.26 0.26 95 1013.2
20260902023042 77 9 0.0 0.0 0.00 0.26 0.26 95 1012.9
20260902021537 77 9 0.0 0.0 0.00 0.26 0.26 95 1012.9
20260902020036 77 9 0.0 0.0 0.00 0.26 0.26 95 1012.6
20260902014538 77 9 0.0 0.0 0.00 0.26 0.26 95 1012.6
20260902013038 78 9 0.0 0.0 0.00 0.26 0.26 95 1012.4
20260902011536 78 9 0.0 0.0 0.00 0.26 0.26 95 1012.4
20260902010035 78 9 0.0 0.0 0.00 0.26 0.26 95 1012.3
20260902004532 78 9 0.0 0.0 0.00 0.26 0.26 95 1012.5
20260902003035 78 9 0.0 0.0 0.00 0.26 0.26 95 1012.6
20260902001544 78 9 0.0 0.0 0.00 0.26 0.26 95 1012.7
20260902000039 77 9 0.0 0.0 0.02 0.26 0.26 94 1012.6
20260901234528 78 9 0.0 0.0 0.04 0.26 0.26 94 1012.7
20260901233035 77 9 0.0 0.0 0.05 0.26 0.26 94 1012.8
20260901231525 77 9 0.0 0.0 0.10 0.26 0.26 93 1013.0
20260901230027 78 9 0.0 0.0 0.23 0.23 0.23 93 1013.3
20260901224528 78 9 0.0 0.0 0.22 0.22 0.22 92 1013.5
20260901223022 78 9 0.0 0.0 0.21 0.21 0.21 90 1013.8
20260901221522 79 40 0.0 5.0 0.16 0.16 0.16 87 1014.1
20260901220029 85 33 1.0 9.0 0.00 0.00 0.00 73 1014.0
20260901214520 89 69 1.0 11.0 0.00 0.00 0.00 64 1013.4
20260901213020 89 3 0.0 2.0 0.00 0.00 0.00 65 1013.1
20260901211530 89 146 0.0 2.0 0.00 0.00 0.00 64 1013.0
20260901210017 90 32 0.0 5.0 0.00 0.00 0.00 60 1013.1
20260901204522 90 355 2.0 6.0 0.00 0.00 0.00 61 1013.1
20260901203019 90 351 1.0 5.0 0.00 0.00 0.00 64 1013.2
20260901201511 90 303 1.0 5.0 0.00 0.00 0.00 64 1013.4
20260901200010 90 28 1.0 3.0 0.00 0.00 0.00 66 1014.2
20260901194507 89 14 0.0 2.0 0.00 0.00 0.00 67 1014.3
20260901193005 88 23 1.0 4.0 0.00 0.00 0.00 68 1014.5
20260901191505 89 17 0.0 2.0 0.00 0.00 0.00 72 1014.2
20260901190003 88 347 0.0 2.0 0.00 0.00 0.00 72 1014.1
20260901184603 88 344 0.0 2.0 0.00 0.00 0.00 72 1014.3
20260901183058 87 22 0.0 2.0 0.00 0.00 0.00 76 1014.4
20260901181556 87 17 0.0 3.0 0.00 0.00 0.00 75 1014.7
20260901180053 85 41 0.0 3.0 0.00 0.00 0.00 77 1015.0
20260901174550 85 5 0.0 2.0 0.00 0.00 0.00 78 1015.4
20260901173049 84 4 0.0 2.0 0.00 0.00 0.00 79 1015.6
20260901171553 84 328 0.0 0.0 0.00 0.00 0.00 80 1015.8
20260901170108 85 358 0.0 2.0 0.00 0.00 0.00 77 1016.2
20260901164551 85 9 0.0 2.0 0.00 0.00 0.00 77 1016.3
20260901163047 85 324 0.0 4.0 0.00 0.00 0.00 77 1016.2
20260901161553 85 41 0.0 4.0 0.00 0.00 0.00 78 1016.2
20260901160052 85 3 0.0 4.0 0.00 0.00 0.00 77 1016.0
20260901154547 85 21 0.0 4.0 0.00 0.00 0.00 78 1016.0
20260901153041 85 357 1.0 5.0 0.00 0.00 0.00 80 1016.0
20260901151544 84 235 0.0 2.0 0.00 0.00 0.00 79 1016.1
20260901150057 84 22 0.0 5.0 0.00 0.00 0.00 79 1016.1
20260901144544 84 337 1.0 4.0 0.00 0.00 0.00 79 1016.0
20260901143038 84 24 0.0 2.0 0.00 0.00 0.00 81 1016.0
20260901141536 82 357 0.0 4.0 0.00 0.00 0.00 85 1016.0
20260901140034 81 289 0.0 1.0 0.00 0.00 0.00 88 1016.2
20260901134535 80 287 0.0 2.0 0.00 0.00 0.00 89 1016.2
20260901133032 79 285 0.0 1.0 0.00 0.00 0.00 91 1016.2
20260901131543 78 279 0.0 0.0 0.00 0.00 0.00 92 1016.2